Simultaneous Nadir Overpasses (SNOs) Predictions

Prediction of SNOs between AQUA and METOP-C Satellite Orbit:

Table of predicted SNOs for the next 14.0 days since TLE Epoch: 7/6/2024
Index Date (AQUA) Time (AQUA) Lat,Lon (AQUA) SZA (AQUA ) Date (METOP-C) Time (METOP-C) Lat,Lon (METOP-C) SZA (METOP-C ) Distance(km) Time Diff (sec)
1 07/08/2024 15:07:58 75.48, -48.18 53.04 07/08/2024 15:06:50 75.46, -48.06 53.04 3.70 68
2 07/08/2024 15:57:20 -75.52, 119.36 126.91 07/08/2024 15:57:31 -75.53, 119.47 126.90 3.60 11
3 07/08/2024 16:46:54 76.09, -74.72 53.70 07/08/2024 16:47:58 76.10, -71.33 53.66 90.46 64
4 07/11/2024 06:28:53 -75.48, -98.37 126.62 07/11/2024 06:27:51 -75.46, -98.32 126.63 2.65 62
5 07/11/2024 07:18:16 75.52, 69.18 53.43 07/11/2024 07:18:29 75.51, 69.17 53.42 0.70 13
6 07/13/2024 21:49:48 75.49,-148.59 53.78 07/13/2024 21:48:48 75.47,-148.52 53.76 3.19 60
7 07/13/2024 22:39:10 -75.52, 18.98 126.18 07/13/2024 22:39:29 -75.54, 19.03 126.17 2.54 19
8 07/16/2024 13:10:41 -75.51, 161.20 125.78 07/16/2024 13:09:48 -75.50, 161.31 125.79 3.50 53
9 07/16/2024 14:00:04 75.55, -31.28 54.28 07/16/2024 14:00:26 75.54, -31.21 54.26 2.62 22
10 07/19/2024 04:31:32 75.50, 111.04 54.68 07/19/2024 04:30:44 75.48, 111.04 54.67 2.45 48
11 07/19/2024 05:20:54 -75.53, -81.37 125.29 07/19/2024 05:21:25 -75.56, -81.40 125.26 3.52 31



Historial Predications of SNOs between AQUA and METOP-C
